[[{"header":{"parameterUnit":"m.s-1","parameterCategory":2,"la1":30.2991,"la2":30.254,"lo1":-89.0895,"lo2":-89.0444,"dy":0.0017,"dx":0.0017,"nx":28,"ny":28,"refTime":"2025-04-16T21:00:00:Z","depth":"0","parameterNumber":2,"parameterNumberName":"U-component_of_CURRENTS"},"data":[0,0,0,0,0,0,0,0,0,0,0,0,0,0,0,0,0,0,0,0,0,0,0,0,0,0,0,0,0,0,0,0,0,0,0,0,0,0,0,0,0,0,0,0,0,0,0,0,0,0,0,0,0,0,0,0,0,0,0.2386,0.2386,0,0.2399,0.2399,0.2398,0.2397,0.2397,0.2397,0.2397,0.2379,0.2379,0.2378,0,0,0,0,0,0,0,0,0,0,0,0,0,0.2331,0.2332,0.2386,0.2386,0.2387,0.2399,0.2399,0.2398,0.2396,0.2397,0.2397,0.2397,0.238,0.2379,0.2378,0,0,0,0,0,0,0,0,0,0,0,0,0,0.2347,0.2333,0.2386,0.239,0.2391,0.2399,0.2399,0.2398,0.2396,0.2397,0.2397,0.2397,0.238,0.2379,0.2378,0.2369,0,0,0.2375,0.2375,0,0,0,0,0,0,0,0,0.2346,0.2349,0.2389,0.239,0.2391,0.24,0.2373,0.2388,0.2396,0.239,0.2397,0.2397,0.2386,0.2384,0.2381,0.2368,0.2367,0.2375,0.2375,0.2374,0.2374,0,0,0,0,0,0,0,0.2345,0.2348,0.2387,0.239,0.2391,0.2382,0.2384,0.2376,0.2383,0.2391,0.2392,0.2399,0.2385,0.2382,0.2381,0.2367,0.2375,0.2375,0.2374,0.2374,0.2437,0.2439,0,0,0,0,0,0,0.2353,0.2347,0.2387,0.2388,0.2373,0.2383,0.2386,0.2393,0.2384,0.2384,0.2399,0.2399,0.2384,0.2382,0.238,0.2435,0.2374,0.2374,0.2373,0.2435,0.2437,0.244,0,0,0,0,0,0,0.2352,0.2356,0.2386,0.2371,0.2374,0.2385,0.2393,0.2394,0.2397,0.2391,0.239,0.2403,0.2384,0.2381,0.2394,0.2432,0.2373,0.2372,0.2432,0.2435,0.2438,0.2501,0,0,0,0,0,0,0.235,0.2356,0.236,0.2371,0.2376,0.2403,0.2393,0.2394,0.2403,0.2403,0.2394,0.2393,0.2384,0.2395,0.2393,0.2429,0.2372,0.2429,0.2433,0.2437,0.2496,0.2506,0.2515,0,0,0,0,0,0.2348,0.2355,0.236,0.2365,0.2383,0.2404,0.2405,0.241,0.2403,0.2411,0.2412,0.2393,0.2421,0.2396,0.2392,0.243,0.2427,0.2432,0.2437,0.2492,0.2504,0.2515,0,0,0,0,0,0,0.233,0.2356,0.2362,0.2375,0.2395,0.2405,0.2411,0.2413,0.2418,0.2418,0.2406,0.2405,0.2436,0.2424,0.2397,0.2465,0.2427,0.2431,0.247,0.2481,0.249,0.2488,0.2371,0,0,0,0,0,0.233,0.2344,0.2368,0.2379,0.239,0.24,0.2407,0.2415,0.2424,0.2426,0.2423,0.2431,0.2453,0.2458,0.2468,0.2489,0.2504,0.2518,0.2528,0.2535,0.2534,0.259,0.2604,0.2456,0.2456,0.2456,0,0,0.2325,0.2343,0.2349,0.2377,0.2388,0.2413,0.2404,0.2423,0.2448,0.2423,0.2447,0.2457,0.2467,0.2504,0.2518,0.2497,0.2593,0.2541,0.2548,0.2542,0.2596,0.2611,0.2623,0.2459,0.2459,0.2458,0,0,0.2327,0.234,0.2355,0.2376,0.2406,0.242,0.2429,0.2449,0.2463,0.2487,0.2493,0.2523,0.2534,0.2563,0.2576,0.2639,0.264,0.2651,0.2691,0.2745,0.2758,0.2768,0.2836,0.2852,0.2655,0.2655,0.2655,0,0.2318,0.2346,0.2362,0.2387,0.2409,0.2427,0.2454,0.2474,0.2497,0.2517,0.2505,0.2567,0.2567,0.2636,0.2662,0.2659,0.2694,0.2644,0.2756,0.2767,0.2777,0.2843,0.286,0.2659,0.2658,0.2658,0.2657,0,0.2337,0.2362,0.2374,0.2416,0.2441,0.2467,0.2505,0.253,0.2546,0.2569,0.2632,0.2647,0.2685,0.2704,0.2696,0.2781,0.2787,0.2761,0.2724,0.2796,0.2862,0.2878,0.2664,0.2663,0.2661,0.2661,0,0,0.2307,0.2374,0.2378,0.2406,0.2461,0.2483,0.2534,0.2587,0.2633,0.2659,0.2719,0.2764,0.2776,0.2794,0.2808,0.2852,0.2956,0.2837,0.2838,0.2896,0.3098,0.3098,0.3116,0.2951,0.2954,0.2956,0.3127,0,0.2318,0.2363,0.2402,0.2455,0.2482,0.2529,0.2581,0.2633,0.2679,0.274,0.2779,0.2839,0.2814,0.2848,0.2889,0.2939,0.2998,0.2913,0.3026,0.303,0.3014,0.3134,0.3012,0.3153,0.3143,0.3145,0.3147,0,0.2322,0.2356,0.24,0.2484,0.2503,0.254,0.263,0.2685,0.2777,0.2817,0.2881,0.2913,0.2996,0.2955,0.3082,0.3031,0.3069,0.3101,0.3108,0.3091,0.306,0.3075,0.3183,0.3115,0.3172,0.317,0.3169,0,0.2283,0.2358,0.2393,0.2417,0.2509,0.2545,0.2602,0.2697,0.2752,0.2872,0.2924,0.302,0.3083,0.3139,0.3198,0.3152,0.3336,0.3279,0.3323,0.3324,0.3232,0.322,0.3274,0.3371,0.3371,0.337,0.337,0,0.2277,0.2308,0.2375,0.2394,0.2452,0.2527,0.2603,0.2683,0.2791,0.2869,0.2959,0.3042,0.313,0.3231,0.3258,0.3364,0.3392,0.3363,0.3377,0.3255,0.3244,0.3186,0.3152,0.3377,0.3375,0.3374,0.3373,0,0.2236,0.2277,0.232,0.2405,0.2431,0.2472,0.2581,0.2637,0.2764,0.287,0.2911,0.3083,0.3241,0.3334,0.3466,0.3458,0.346,0.3566,0.3429,0.3423,0.3365,0.3338,0.3285,0.3183,0.3644,0.3645,0.3646,0,0.2221,0.2236,0.2305,0.2318,0.2355,0.242,0.2464,0.2597,0.2659,0.2887,0.293,0.3141,0.3259,0.3484,0.3548,0.3652,0.3528,0.3585,0.346,0.3382,0.3363,0.3203,0.3106,0.338,0.3379,0.3378,0.3377,0,0.2192,0.221,0.2239,0.2266,0.2298,0.2345,0.2421,0.2463,0.2635,0.2745,0.2915,0.304,0.3299,0.3387,0.3561,0.3586,0.3415,0.3566,0.3513,0.32,0.2999,0.29,0.3262,0.3367,0.3368,0.3369,0.337,0.337,0.2155,0.2163,0.2186,0.2219,0.2239,0.2266,0.228,0.2373,0.2473,0.2638,0.2817,0.2984,0.3206,0.3441,0.3452,0.3432,0.3381,0.3334,0.3327,0.3186,0.3016,0.3377,0.3472,0.3473,0.3475,0.3476,0.3477,0,0.2113,0.2125,0.2142,0.2159,0.2151,0.2193,0.2242,0.2251,0.233,0.2525,0.2671,0.291,0.3048,0.3195,0.3289,0.32,0.3006,0.313,0.2861,0.279,0.3154,0.307,0.3046,0.3046,0.3047,0.3047,0.3047,0.3047,0.2085,0.2085,0.2108,0.2075,0.2075,0.2043,0.2051,0.2087,0.2188,0.2341,0.248,0.2648,0.2939,0.3168,0.3137,0.3042,0.2789,0.2689,0.2673,0.2933,0.2949,0.2964,0.2877,0.2813,0.2813,0.215,0.2146,0.2143]},{"header":{"parameterUnit":"m.s-1","parameterCategory":2,"la1":30.2991,"la2":30.254,"lo1":-89.0895,"lo2":-89.0444,"dy":0.0017,"dx":0.0017,"nx":28,"ny":28,"refTime":"2025-04-16T21:00:00:Z","depth":"0","parameterNumber":3,"parameterNumberName":"V-component_of_CURRENTS"},"data":[0,0,0,0,0,0,0,0,0,0,0,0,0,0,0,0,0,0,0,0,0,0,0,0,0,0,0,0,0,0,0,0,0,0,0,0,0,0,0,0,0,0,0,0,0,0,0,0,0,0,0,0,0,0,0,0,0,0,0.0133,0.0133,0,0.0049,0.0048,0.0047,-0.0007,-0.0007,-0.0007,-0.0008,-0.0116,-0.0119,-0.0121,0,0,0,0,0,0,0,0,0,0,0,0,0,0.0174,0.0174,0.0133,0.0132,0.0132,0.0049,0.0048,0.0047,-0.0007,-0.0007,-0.0007,-0.0008,-0.0115,-0.0118,-0.0122,0,0,0,0,0,0,0,0,0,0,0,0,0,0.0128,0.0174,0.0134,0.0096,0.0092,0.0049,0.0048,0.0046,-0.0007,-0.0007,-0.0007,-0.0008,-0.0114,-0.0118,-0.0122,-0.0143,0,0,-0.0135,-0.0137,0,0,0,0,0,0,0,0,0.0131,0.0127,0.0103,0.0099,0.0094,0.0033,0.0022,-0.0018,-0.0007,0.0029,-0.0008,-0.0008,-0.0067,-0.0075,-0.0093,-0.0148,-0.0152,-0.0135,-0.0138,-0.0139,-0.0141,0,0,0,0,0,0,0,0.0135,0.013,0.0098,0.0102,0.0097,0.0059,0.0052,0.0014,-0.0019,0.0026,0.0022,0.0015,-0.007,-0.0089,-0.0096,-0.0154,-0.0135,-0.0139,-0.0141,-0.0143,-0.022,-0.022,0,0,0,0,0,0,0.0153,0.0133,0.0101,0.0096,0.0114,0.0058,0.0051,0.0051,-0.0018,-0.0028,0.0016,0.0013,-0.0081,-0.0091,-0.01,-0.0111,-0.0139,-0.0143,-0.0146,-0.022,-0.022,-0.022,0,0,0,0,0,0,0.0154,0.0151,0.0104,0.0113,0.0105,0.0059,0.0059,0.005,0.0031,-0.0025,-0.0036,0.0007,-0.0082,-0.0094,-0.0127,-0.0116,-0.0145,-0.0149,-0.0221,-0.022,-0.022,-0.0144,0,0,0,0,0,0,0.0156,0.0152,0.0156,0.0115,0.0105,0.0088,0.0059,0.0048,0.0028,0.0024,-0.0036,-0.0047,-0.0083,-0.0121,-0.0131,-0.0122,-0.0152,-0.0221,-0.0221,-0.022,-0.0147,-0.0141,-0.0136,0,0,0,0,0,0.0157,0.0168,0.0157,0.0153,0.0114,0.0089,0.008,0.0044,0.0029,0.0025,-0.0014,-0.0045,-0.0123,-0.0124,-0.0136,-0.0128,-0.0222,-0.0221,-0.022,-0.015,-0.0142,-0.0136,0,0,0,0,0,0,0.0188,0.0163,0.015,0.0152,0.0127,0.0081,0.0076,0.0049,0.0014,0.0011,-0.0044,-0.0057,-0.0081,-0.0116,-0.0115,-0.0148,-0.0176,-0.0177,-0.0118,-0.0111,-0.0106,-0.009,-0.0155,0,0,0,0,0,0.0198,0.0199,0.0167,0.0169,0.0162,0.0119,0.0103,0.0081,0.0045,0.0029,-0.0011,-0.0052,-0.0087,-0.0107,-0.0142,-0.0164,-0.019,-0.0166,-0.016,-0.0155,-0.015,-0.0182,-0.0179,-0.0216,-0.0216,-0.0216,0,0,0.0209,0.0196,0.0196,0.0175,0.0153,0.0151,0.0109,0.0094,0.0089,0.0023,0.0007,-0.0035,-0.0088,-0.0109,-0.0122,-0.0137,-0.0154,-0.0154,-0.0149,-0.0147,-0.0181,-0.0177,-0.0174,-0.0216,-0.0216,-0.0216,0,0,0.0237,0.0224,0.0236,0.0222,0.0198,0.0175,0.0175,0.0136,0.0117,0.0095,0.0049,0.0016,-0.0037,-0.0072,-0.0097,-0.0083,-0.0123,-0.0093,-0.0054,-0.0084,-0.0081,-0.0079,-0.0089,-0.0089,-0.009,-0.009,-0.009,0,0.0252,0.0264,0.0235,0.0243,0.0238,0.0192,0.0205,0.0179,0.0134,0.0124,0.0103,0.0028,-0.0019,-0.0048,-0.0044,-0.0069,-0.0087,-0.0073,-0.0076,-0.0074,-0.0073,-0.0085,-0.0085,-0.0087,-0.0087,-0.0087,-0.0088,0,0.0288,0.0297,0.0304,0.0303,0.0293,0.0296,0.0265,0.0252,0.0226,0.0197,0.0165,0.01,0.0058,0.0036,-0.0003,-0.0018,-0.0031,-0.0063,-0.0089,-0.0065,-0.0079,-0.008,-0.0081,-0.0083,-0.0084,-0.0085,0,0,0.0323,0.033,0.0333,0.0346,0.0327,0.0326,0.0324,0.0308,0.0316,0.0261,0.0264,0.0188,0.0153,0.0122,0.0068,0.0033,0.0025,-0.0007,-0.001,-0.001,-0.0026,-0.0018,-0.0019,-0.0007,-0.0008,-0.0008,-0.0032,0,0.0361,0.0398,0.0386,0.0419,0.0437,0.0404,0.0409,0.0387,0.0364,0.0356,0.0281,0.0259,0.0186,0.0172,0.0126,0.0054,0.0021,0.0035,-0.0057,-0.0059,-0.005,-0.0021,-0.0019,-0.0039,-0.0034,-0.0034,-0.0034,0,0.0398,0.0422,0.0464,0.0487,0.0492,0.0503,0.0512,0.0513,0.0484,0.0466,0.0425,0.0367,0.031,0.0245,0.0135,0.015,0.007,0.0006,0.0003,-0.0018,-0.0054,-0.0069,-0.0043,-0.0203,-0.0037,-0.0037,-0.0037,0,0.0439,0.0474,0.0514,0.052,0.0537,0.0551,0.0561,0.0548,0.0572,0.0542,0.0564,0.0464,0.0451,0.0322,0.0192,0.0163,0.0081,0.0023,-0.0046,-0.0046,-0.0078,-0.008,-0.0214,-0.0059,-0.0059,-0.0058,-0.0058,0,0.0481,0.0512,0.054,0.0562,0.0619,0.0608,0.0667,0.0658,0.0677,0.074,0.0633,0.067,0.0471,0.0398,0.0242,0.0116,0.0121,-0.0028,-0.0052,-0.0049,-0.0048,-0.0216,-0.0315,-0.0059,-0.0059,-0.0059,-0.0059,0,0.0515,0.0529,0.0582,0.0621,0.064,0.0683,0.0753,0.08,0.0808,0.0892,0.0892,0.0836,0.0754,0.0556,0.0372,0.0217,-0.0031,0.0012,0.0041,0.0021,-0.0207,-0.0301,-0.0469,-0.0545,-0.0075,-0.0075,-0.0075,0,0.0536,0.0568,0.0635,0.0681,0.0704,0.0773,0.0829,0.0859,0.0931,0.1016,0.1074,0.1021,0.1026,0.0762,0.0458,0.0194,0.0007,0.0008,-0.0064,-0.0207,-0.033,-0.0412,-0.047,-0.0072,-0.0072,-0.0072,-0.0072,0,0.0588,0.0609,0.0659,0.0759,0.0828,0.0919,0.1012,0.1095,0.1167,0.1261,0.1386,0.1399,0.1156,0.0894,0.0517,0.0317,-0.0115,0.0002,-0.0168,-0.0351,-0.0429,-0.0516,-0.0057,-0.0072,-0.0072,-0.0072,-0.0072,-0.0072,0.0632,0.0684,0.076,0.0859,0.0942,0.1076,0.1187,0.131,0.1473,0.1657,0.1638,0.1712,0.1283,0.0778,0.0475,-0.0077,-0.0096,-0.0261,-0.0363,-0.0431,-0.0513,-0.0034,-0.0064,-0.0064,-0.0064,-0.0064,-0.0064,0,0.0705,0.077,0.0862,0.0992,0.1106,0.1135,0.1321,0.1461,0.1695,0.1846,0.1968,0.1799,0.1292,0.075,-0.0007,-0.0387,-0.0545,-0.0594,-0.0733,-0.0776,-0.0366,-0.0374,-0.0446,-0.0446,-0.0446,-0.0445,-0.0445,-0.0445,0.0749,0.0861,0.0918,0.1127,0.1218,0.1402,0.1527,0.1738,0.1892,0.2109,0.2153,0.2149,0.1705,0.034,-0.0547,-0.0738,-0.1027,-0.1092,-0.1218,-0.0964,-0.0942,-0.092,-0.0951,-0.1143,-0.1144,-0.1589,-0.1594,-0.1598]}],[{"header":{"parameterUnit":"m.s-1","parameterCategory":2,"la1":30.2991,"la2":30.254,"lo1":-89.0895,"lo2":-89.0444,"dy":0.0017,"dx":0.0017,"nx":28,"ny":28,"refTime":"2025-04-16T21:00:00:Z","depth":"2","parameterNumber":2,"parameterNumberName":"U-component_of_CURRENTS"},"data":[0,0,0,0,0,0,0,0,0,0,0,0,0,0,0,0,0,0,0,0,0,0,0,0,0,0,0,0,0,0,0,0,0,0,0,0,0,0,0,0,0,0,0,0,0,0,0,0,0,0,0,0,0,0,0,0,0,0,0.2297,0.2297,0,0.2304,0.2304,0.2304,0.2315,0.2315,0.2316,0.2316,0.231,0.231,0.2309,0,0,0,0,0,0,0,0,0,0,0,0,0,0.2248,0.2249,0.2297,0.2297,0.2298,0.2304,0.2304,0.2304,0.2315,0.2315,0.2316,0.2316,0.231,0.231,0.2309,0,0,0,0,0,0,0,0,0,0,0,0,0,0.2262,0.2249,0.2297,0.2305,0.2306,0.2304,0.2304,0.2304,0.2315,0.2315,0.2316,0.2316,0.2311,0.231,0.2309,0.2292,0,0,0.2307,0.2306,0,0,0,0,0,0,0,0,0.2261,0.2263,0.2304,0.2305,0.2306,0.2311,0.2285,0.23,0.2314,0.2309,0.2316,0.2317,0.231,0.231,0.2307,0.2292,0.2292,0.2307,0.2306,0.2306,0.2305,0,0,0,0,0,0,0,0.226,0.2263,0.2297,0.2304,0.2305,0.2294,0.2297,0.2288,0.2304,0.2309,0.2311,0.2315,0.2311,0.2307,0.2307,0.2292,0.2307,0.2306,0.2305,0.2305,0.2371,0.2374,0,0,0,0,0,0,0.2266,0.2262,0.2297,0.2298,0.2287,0.2295,0.2298,0.2307,0.2305,0.2306,0.2315,0.2316,0.2308,0.2307,0.2306,0.2368,0.2306,0.2305,0.2305,0.2369,0.2372,0.2374,0,0,0,0,0,0,0.2265,0.2269,0.2297,0.2282,0.2285,0.2296,0.2306,0.2307,0.2316,0.2309,0.231,0.2324,0.2309,0.2307,0.2324,0.2365,0.2305,0.2304,0.2367,0.237,0.2373,0.2438,0,0,0,0,0,0,0.2263,0.2269,0.2276,0.2282,0.2286,0.231,0.2305,0.2307,0.2318,0.232,0.2317,0.2316,0.2309,0.2325,0.2323,0.2362,0.2303,0.2364,0.2368,0.2372,0.2433,0.2443,0.2452,0,0,0,0,0,0.2262,0.2267,0.2276,0.228,0.2296,0.2311,0.2312,0.2319,0.2318,0.2327,0.2334,0.2317,0.2351,0.2326,0.2323,0.2363,0.2362,0.2367,0.2372,0.2429,0.2441,0.2452,0,0,0,0,0,0,0.2247,0.2269,0.2279,0.2291,0.2309,0.2314,0.2321,0.2324,0.2334,0.2339,0.2329,0.2329,0.2365,0.2354,0.2326,0.2399,0.236,0.2365,0.2405,0.2416,0.2426,0.2423,0.2303,0,0,0,0,0,0.2249,0.2262,0.2282,0.2294,0.2305,0.2315,0.2321,0.233,0.234,0.2345,0.2345,0.2357,0.2381,0.2389,0.24,0.2423,0.2432,0.2455,0.2464,0.2472,0.2471,0.2517,0.253,0.2391,0.2391,0.2391,0,0,0.2245,0.2261,0.2267,0.2293,0.2306,0.2328,0.232,0.2339,0.2363,0.2341,0.2371,0.2383,0.2395,0.2436,0.2451,0.2431,0.2524,0.2479,0.2485,0.2479,0.2524,0.2537,0.2549,0.2394,0.2394,0.2393,0,0,0.2247,0.2264,0.2279,0.2299,0.2328,0.2339,0.2349,0.2367,0.2384,0.241,0.2418,0.2452,0.2468,0.2496,0.251,0.2574,0.2571,0.2589,0.2631,0.2676,0.2688,0.2698,0.2752,0.2766,0.2594,0.2595,0.2595,0,0.2243,0.227,0.2284,0.231,0.2331,0.2348,0.2375,0.2394,0.2417,0.244,0.2432,0.2498,0.25,0.2569,0.2598,0.2595,0.2623,0.2584,0.2687,0.2697,0.2706,0.2759,0.2774,0.2598,0.2598,0.2597,0.2597,0,0.2261,0.2288,0.2301,0.2343,0.2366,0.2393,0.2427,0.2453,0.2473,0.2497,0.2564,0.2579,0.262,0.264,0.2634,0.2715,0.2717,0.2692,0.2653,0.2724,0.2776,0.2791,0.2604,0.2602,0.2601,0.26,0,0,0.2239,0.2301,0.2307,0.2339,0.239,0.241,0.246,0.2513,0.256,0.2589,0.2651,0.2699,0.2714,0.2732,0.2746,0.2783,0.2875,0.2768,0.2769,0.2814,0.2995,0.2934,0.2944,0.2871,0.2874,0.2875,0.3014,0,0.2253,0.2299,0.2334,0.2389,0.2417,0.2462,0.2513,0.2563,0.2609,0.2671,0.2711,0.2774,0.2751,0.2788,0.2823,0.2861,0.2912,0.2841,0.2926,0.2929,0.2859,0.2957,0.273,0.2829,0.3028,0.303,0.3032,0,0.226,0.2293,0.2339,0.2424,0.2444,0.2481,0.2571,0.2623,0.2713,0.2755,0.2819,0.285,0.2926,0.2888,0.2992,0.2951,0.298,0.3002,0.3007,0.2931,0.2894,0.2787,0.2846,0.3055,0.3053,0.3052,0.305,0,0.2225,0.2302,0.2339,0.2364,0.2453,0.2493,0.255,0.2642,0.2696,0.2812,0.2862,0.2951,0.3006,0.3051,0.3093,0.3055,0.3201,0.3151,0.3132,0.3129,0.294,0.2915,0.3229,0.3229,0.3229,0.3228,0.3228,0,0.2223,0.2258,0.2326,0.2346,0.2409,0.2483,0.2561,0.2639,0.2743,0.2816,0.2901,0.2973,0.3048,0.3129,0.3146,0.3195,0.3251,0.3162,0.3165,0.296,0.2937,0.312,0.3106,0.3234,0.3232,0.3231,0.323,0,0.2186,0.2226,0.2273,0.2361,0.2389,0.2434,0.2545,0.2599,0.2721,0.2818,0.2859,0.301,0.3131,0.3207,0.3309,0.3266,0.3315,0.3319,0.3081,0.3052,0.32,0.3188,0.3309,0.3308,0.3307,0.3306,0.3306,0,0.2175,0.2194,0.2262,0.2276,0.2316,0.2386,0.2429,0.2562,0.2618,0.2828,0.2865,0.3042,0.3124,0.327,0.3279,0.3333,0.3365,0.3116,0.2983,0.322,0.3212,0.32,0.3189,0.2778,0.2773,0.2769,0.2766,0,0.2156,0.2175,0.2201,0.2227,0.226,0.2309,0.2386,0.2423,0.2586,0.2685,0.2829,0.2924,0.3094,0.3053,0.3139,0.3123,0.3082,0.3036,0.3369,0.2782,0.2728,0.2716,0.2722,0.2731,0.2735,0.2737,0.2739,0.2741,0.2127,0.2137,0.2154,0.2186,0.2206,0.2227,0.2244,0.2322,0.2409,0.2534,0.2685,0.275,0.2825,0.2838,0.2789,0.2763,0.2957,0.2799,0.2808,0.2822,0.2725,0.267,0.2647,0.265,0.2652,0.2654,0.2656,0,0.2094,0.2104,0.2119,0.2131,0.2114,0.216,0.2207,0.2202,0.2258,0.2369,0.2464,0.2319,0.2335,0.2416,0.2332,0.234,0.2284,0.2235,0.2135,0.2174,0.2209,0.2075,0.1827,0.1824,0.1821,0.1818,0,0,0.2068,0.2063,0.2082,0.2038,0.204,0.2014,0.2021,0.2027,0.2071,0.2041,0.2047,0.2229,0.2341,0.2035,0.2028,0.1909,0.2011,0.1839,0.2517,0.2441,0.2469,0.2567,0.2411,0,0,0,0,0]},{"header":{"parameterUnit":"m.s-1","parameterCategory":2,"la1":30.2991,"la2":30.254,"lo1":-89.0895,"lo2":-89.0444,"dy":0.0017,"dx":0.0017,"nx":28,"ny":28,"refTime":"2025-04-16T21:00:00:Z","depth":"2","parameterNumber":3,"parameterNumberName":"V-component_of_CURRENTS"},"data":[0,0,0,0,0,0,0,0,0,0,0,0,0,0,0,0,0,0,0,0,0,0,0,0,0,0,0,0,0,0,0,0,0,0,0,0,0,0,0,0,0,0,0,0,0,0,0,0,0,0,0,0,0,0,0,0,0,0,0.0017,0.0016,0,-0.0066,-0.0067,-0.0068,-0.0114,-0.0114,-0.0114,-0.0114,-0.0214,-0.0217,-0.022,0,0,0,0,0,0,0,0,0,0,0,0,0,0.006,0.006,0.0017,0.0016,0.0015,-0.0066,-0.0067,-0.0068,-0.0114,-0.0114,-0.0114,-0.0114,-0.0214,-0.0217,-0.022,0,0,0,0,0,0,0,0,0,0,0,0,0,0.0015,0.006,0.0017,-0.0017,-0.0021,-0.0065,-0.0067,-0.0068,-0.0114,-0.0114,-0.0114,-0.0114,-0.0212,-0.0216,-0.022,-0.0243,0,0,-0.0232,-0.0234,0,0,0,0,0,0,0,0,0.0018,0.0014,-0.0011,-0.0015,-0.0019,-0.0079,-0.0088,-0.0127,-0.0114,-0.0079,-0.0114,-0.0114,-0.017,-0.0177,-0.0194,-0.0248,-0.0252,-0.0233,-0.0235,-0.0237,-0.0238,0,0,0,0,0,0,0,0.0021,0.0017,-0.0017,-0.0012,-0.0017,-0.0053,-0.0059,-0.0096,-0.0124,-0.0082,-0.0086,-0.0093,-0.0172,-0.019,-0.0197,-0.0254,-0.0233,-0.0236,-0.0238,-0.024,-0.0316,-0.0315,0,0,0,0,0,0,0.0037,0.002,-0.0014,-0.0019,0.0001,-0.0054,-0.006,-0.006,-0.0124,-0.0133,-0.0093,-0.0095,-0.0183,-0.0192,-0.02,-0.0209,-0.0237,-0.024,-0.0243,-0.0316,-0.0315,-0.0315,0,0,0,0,0,0,0.0039,0.0036,-0.0011,-0.0001,-0.001,-0.0054,-0.0054,-0.0062,-0.0077,-0.0131,-0.0141,-0.0099,-0.0184,-0.0195,-0.0226,-0.0214,-0.0242,-0.0246,-0.0316,-0.0316,-0.0315,-0.024,0,0,0,0,0,0,0.0041,0.0037,0.0042,0.0,-0.001,-0.0028,-0.0054,-0.0063,-0.0081,-0.0085,-0.014,-0.015,-0.0184,-0.022,-0.023,-0.022,-0.0249,-0.0317,-0.0316,-0.0315,-0.0243,-0.0237,-0.0232,0,0,0,0,0,0.0043,0.0052,0.0043,0.0039,-0.0,-0.0027,-0.0035,-0.0068,-0.0081,-0.0083,-0.012,-0.0148,-0.0222,-0.0223,-0.0235,-0.0225,-0.0317,-0.0316,-0.0316,-0.0245,-0.0238,-0.0232,0,0,0,0,0,0,0.0073,0.0047,0.0036,0.0038,0.0012,-0.0034,-0.0038,-0.0063,-0.0095,-0.0095,-0.0148,-0.016,-0.0182,-0.0215,-0.0214,-0.0245,-0.0273,-0.0274,-0.0215,-0.0209,-0.0203,-0.0185,-0.0252,0,0,0,0,0,0.0084,0.0085,0.0052,0.0053,0.0046,0.0005,-0.001,-0.0031,-0.0065,-0.0079,-0.0117,-0.0155,-0.0189,-0.0207,-0.0241,-0.0262,-0.0289,-0.0263,-0.0257,-0.0252,-0.0245,-0.0279,-0.0276,-0.0312,-0.0312,-0.0312,0,0,0.0095,0.0081,0.0081,0.006,0.0039,0.0037,-0.0004,-0.0018,-0.0022,-0.0085,-0.0098,-0.0139,-0.019,-0.0209,-0.0222,-0.0235,-0.0254,-0.0251,-0.0246,-0.0242,-0.0278,-0.0275,-0.0272,-0.0312,-0.0312,-0.0312,0,0,0.0121,0.011,0.0122,0.0107,0.0084,0.0061,0.0062,0.0024,0.0007,-0.0014,-0.0057,-0.0089,-0.0139,-0.0172,-0.0197,-0.0183,-0.0224,-0.0193,-0.0151,-0.0184,-0.0181,-0.0179,-0.0197,-0.0197,-0.0189,-0.0189,-0.0189,0,0.0137,0.0148,0.0119,0.0127,0.0124,0.0079,0.0093,0.0068,0.0024,0.0016,-0.0004,-0.0075,-0.012,-0.0147,-0.0143,-0.0169,-0.019,-0.017,-0.0175,-0.0174,-0.0173,-0.0193,-0.0194,-0.0186,-0.0186,-0.0186,-0.0187,0,0.017,0.0181,0.0188,0.0188,0.0178,0.0182,0.0151,0.0141,0.0117,0.0089,0.0061,-0.0003,-0.0042,-0.0064,-0.0102,-0.0116,-0.0133,-0.0163,-0.0188,-0.0165,-0.0187,-0.019,-0.018,-0.0182,-0.0183,-0.0184,0,0,0.0205,0.0213,0.0216,0.0233,0.0214,0.0214,0.0213,0.02,0.0209,0.0157,0.016,0.0089,0.0055,0.0025,-0.0028,-0.0064,-0.0078,-0.0105,-0.0108,-0.0115,-0.0138,-0.0171,-0.0177,-0.0108,-0.0108,-0.0109,-0.0152,0,0.0244,0.0283,0.027,0.0306,0.0325,0.0294,0.03,0.0281,0.0259,0.0251,0.0179,0.0159,0.0089,0.0075,0.0029,-0.005,-0.0083,-0.0063,-0.0167,-0.017,-0.0196,-0.0181,-0.0155,-0.0194,-0.0154,-0.0155,-0.0155,0,0.0281,0.0306,0.0351,0.0378,0.0385,0.0397,0.041,0.0412,0.0382,0.0364,0.0325,0.0268,0.0208,0.0148,0.0029,0.0046,-0.0035,-0.0103,-0.0106,-0.0166,-0.0208,-0.0216,-0.0201,-0.016,-0.016,-0.0159,-0.0159,0,0.0324,0.0362,0.0405,0.0412,0.0431,0.0449,0.0462,0.0448,0.0472,0.0441,0.0457,0.0361,0.0339,0.0213,0.0072,0.0052,-0.0055,-0.0101,-0.0207,-0.021,-0.0224,-0.0228,-0.0182,-0.0182,-0.0182,-0.0181,-0.0181,0,0.0366,0.0402,0.0433,0.0456,0.0519,0.0509,0.057,0.0563,0.0577,0.063,0.0528,0.0545,0.0355,0.0267,0.0115,-0.0043,-0.0022,-0.0194,-0.0225,-0.0196,-0.0197,-0.0201,-0.0203,-0.0183,-0.0183,-0.0182,-0.0182,0,0.0401,0.0417,0.0475,0.0518,0.0539,0.0586,0.0656,0.0701,0.0704,0.0772,0.077,0.0693,0.058,0.0386,0.0192,0.0034,-0.0132,-0.0194,-0.0143,-0.0168,-0.0277,-0.0274,-0.0322,-0.0324,-0.0325,-0.0326,-0.0327,0,0.0424,0.0459,0.053,0.0577,0.0602,0.0674,0.0728,0.0757,0.082,0.0873,0.0916,0.0831,0.0777,0.0476,0.0188,-0.0084,-0.0116,-0.0247,-0.0297,-0.0267,-0.0292,-0.0287,-0.0283,-0.0278,-0.0279,-0.0279,-0.0279,0,0.048,0.0503,0.0552,0.065,0.0719,0.0807,0.0896,0.0965,0.1022,0.1082,0.1146,0.1105,0.0827,0.0547,0.0165,-0.0026,-0.0211,-0.0265,-0.0238,-0.0252,-0.0231,-0.0253,-0.025,-0.0282,-0.0282,-0.0282,-0.0282,-0.0282,0.0523,0.0576,0.0646,0.074,0.0825,0.0942,0.1036,0.1123,0.124,0.1326,0.1292,0.1231,0.091,0.0407,0.0102,-0.0221,-0.0224,-0.0355,-0.0351,-0.0348,-0.034,-0.0323,-0.039,-0.039,-0.0391,-0.0391,-0.0391,0,0.0588,0.065,0.074,0.0855,0.0948,0.0993,0.1153,0.1228,0.1373,0.1411,0.1435,0.1116,0.0804,0.0464,-0.0013,-0.032,-0.0339,-0.0411,-0.036,-0.0356,-0.0352,-0.0343,-0.0395,-0.0395,-0.0396,-0.0396,0,0,0.0626,0.072,0.0771,0.0938,0.1028,0.1184,0.1287,0.1379,0.1439,0.1448,0.1408,0.1291,0.0888,0.0538,0.0143,-0.0108,-0.0166,-0.0171,-0.014,-0.0029,-0.0021,-0.0298,-0.0277,0,0,0,0,0]}],[{"header":{"parameterUnit":"m.s-1","parameterCategory":2,"la1":30.2991,"la2":30.254,"lo1":-89.0895,"lo2":-89.0444,"dy":0.0017,"dx":0.0017,"nx":28,"ny":28,"refTime":"2025-04-16T21:00:00:Z","depth":"4","parameterNumber":2,"parameterNumberName":"U-component_of_CURRENTS"},"data":[0,0,0,0,0,0,0,0,0,0,0,0,0,0,0,0,0,0,0,0,0,0,0,0,0,0,0,0,0,0,0,0,0,0,0,0,0,0,0,0,0,0,0,0,0,0,0,0,0,0,0,0,0,0,0,0,0,0,0.1328,0.1329,0,0.1406,0.1407,0.1408,0.1472,0.1472,0.1473,0.1474,0.1565,0.1567,0.1569,0,0,0,0,0,0,0,0,0,0,0,0,0,0.1253,0.1254,0.1328,0.1329,0.133,0.1406,0.1407,0.1408,0.1472,0.1472,0.1473,0.1474,0.1565,0.1567,0.1569,0,0,0,0,0,0,0,0,0,0,0,0,0,0.1304,0.1254,0.1328,0.137,0.1375,0.1406,0.1407,0.1409,0.1471,0.1472,0.1473,0.1474,0.1564,0.1567,0.157,0.1568,0,0,0.1578,0.1579,0,0,0,0,0,0,0,0,0.1301,0.1307,0.1363,0.1367,0.1373,0.143,0.1415,0.1463,0.1471,0.1435,0.1474,0.1475,0.152,0.1527,0.154,0.1573,0.1577,0.1578,0.158,0.1581,0.1582,0,0,0,0,0,0,0,0.1298,0.1304,0.1359,0.1364,0.137,0.1392,0.14,0.1424,0.1472,0.1438,0.1443,0.1451,0.1523,0.1537,0.1543,0.1578,0.1578,0.1581,0.1583,0.1584,0.1695,0.1696,0,0,0,0,0,0,0.1285,0.1301,0.1357,0.1362,0.1338,0.1393,0.1402,0.1411,0.1472,0.1482,0.145,0.1453,0.1532,0.1539,0.1546,0.1631,0.1581,0.1584,0.1586,0.1694,0.1695,0.1696,0,0,0,0,0,0,0.1283,0.1289,0.1354,0.1333,0.1342,0.1393,0.1403,0.1412,0.1458,0.148,0.1491,0.149,0.1533,0.1542,0.1596,0.1632,0.1585,0.1588,0.1692,0.1694,0.1696,0.1747,0,0,0,0,0,0,0.1281,0.1288,0.1307,0.1332,0.1343,0.1397,0.1402,0.1413,0.1459,0.1466,0.1518,0.1526,0.1534,0.1591,0.1598,0.1635,0.159,0.169,0.1693,0.1695,0.1744,0.1751,0.1756,0,0,0,0,0,0.1278,0.1294,0.1308,0.1316,0.1362,0.1398,0.1407,0.1445,0.1461,0.149,0.1522,0.1526,0.1611,0.1595,0.1603,0.1641,0.1689,0.1692,0.1695,0.1741,0.1749,0.1756,0,0,0,0,0,0,0.1272,0.1303,0.1318,0.1344,0.1381,0.1409,0.1442,0.1462,0.1511,0.1523,0.1543,0.1554,0.1612,0.1618,0.1599,0.1678,0.165,0.1655,0.1683,0.1691,0.1697,0.1688,0.1592,0,0,0,0,0,0.1277,0.1302,0.1332,0.1359,0.1379,0.1416,0.1441,0.1465,0.15,0.1525,0.156,0.1594,0.1624,0.1652,0.1676,0.1723,0.1737,0.1751,0.1757,0.1763,0.1761,0.1823,0.1835,0.1706,0.1706,0.1706,0,0,0.1281,0.1304,0.1317,0.1361,0.1393,0.1423,0.1435,0.148,0.1512,0.1525,0.1593,0.1619,0.164,0.1692,0.1718,0.1707,0.1807,0.1766,0.1771,0.1766,0.1827,0.1839,0.1851,0.1708,0.1707,0.1707,0,0,0.129,0.1325,0.1345,0.1377,0.1427,0.145,0.1469,0.1517,0.1553,0.1609,0.1624,0.1672,0.1727,0.1749,0.1764,0.1819,0.1835,0.1834,0.1867,0.1928,0.1939,0.1949,0.1986,0.1999,0.1842,0.1842,0.1842,0,0.1297,0.1323,0.136,0.1388,0.1415,0.1464,0.149,0.1533,0.1594,0.1625,0.164,0.1729,0.175,0.1805,0.1825,0.1834,0.1866,0.1838,0.1937,0.1947,0.1956,0.1992,0.2005,0.1844,0.1844,0.1844,0.1844,0,0.1306,0.1345,0.1365,0.1414,0.1449,0.1486,0.1535,0.1589,0.1637,0.1674,0.1753,0.179,0.1845,0.186,0.1862,0.1938,0.1939,0.1935,0.1918,0.1972,0.2006,0.2019,0.1849,0.1848,0.1847,0.1846,0,0,0.1281,0.1356,0.1367,0.1395,0.1466,0.1491,0.1557,0.1623,0.1682,0.1746,0.1819,0.1869,0.1905,0.1923,0.1943,0.1991,0.2084,0.1998,0.2,0.2035,0.2218,0.2065,0.2064,0.2112,0.2115,0.2117,0.2216,0,0.1284,0.133,0.137,0.1426,0.1454,0.152,0.1579,0.1646,0.1723,0.1813,0.1861,0.1944,0.1926,0.1978,0.202,0.2076,0.2122,0.2057,0.2159,0.2162,0.2019,0.2075,0.2125,0.2226,0.2229,0.2231,0.2232,0,0.1275,0.131,0.1358,0.1436,0.1457,0.1506,0.1612,0.1672,0.1797,0.1864,0.1948,0.2004,0.2089,0.2074,0.2183,0.2151,0.2187,0.2216,0.2221,0.2065,0.2032,0.2159,0.2256,0.2254,0.2253,0.2251,0.2249,0,0.1222,0.1301,0.134,0.1365,0.1461,0.1511,0.1576,0.1694,0.1763,0.1919,0.1995,0.2092,0.2174,0.223,0.2281,0.2261,0.2393,0.2373,0.226,0.225,0.2336,0.2324,0.2448,0.2448,0.2448,0.2447,0.2447,0,0.1194,0.1228,0.133,0.135,0.1415,0.1494,0.1594,0.1679,0.182,0.1906,0.2027,0.2104,0.2225,0.2304,0.2326,0.2326,0.2434,0.2269,0.2268,0.2355,0.2344,0.2346,0.2332,0.2451,0.245,0.2449,0.2449,0,0.1118,0.1191,0.1241,0.1352,0.1394,0.1443,0.1594,0.1666,0.1814,0.1938,0.1996,0.2154,0.225,0.233,0.244,0.2376,0.24,0.2372,0.2461,0.2464,0.2205,0.2194,0.2257,0.2252,0.2248,0.2245,0.2242,0,0.1079,0.1096,0.1221,0.1265,0.1324,0.1423,0.1493,0.1649,0.1728,0.1939,0.198,0.2138,0.2221,0.2251,0.2336,0.237,0.2339,0.2343,0.2256,0.2194,0.2188,0.2183,0.2177,0.2236,0.2235,0.2234,0.2233,0,0.0989,0.105,0.1098,0.1195,0.1279,0.1353,0.1469,0.1518,0.17,0.1841,0.1937,0.2002,0.21,0.2163,0.2209,0.2222,0.2335,0.2302,0.2309,0.2227,0.217,0.2167,0.2165,0.222,0.2222,0.2223,0.2224,0,0.0928,0.0943,0.1031,0.1106,0.1209,0.1268,0.1339,0.1439,0.1535,0.1762,0.1785,0.1942,0.208,0.2087,0.2124,0.213,0.2093,0.2031,0.2051,0.2067,0.1954,0.185,0.1807,0,0,0,0,0,0.0864,0.0875,0.0932,0.1023,0.1126,0.1187,0.1316,0.1394,0.1569,0.1592,0.1689,0.1769,0.1841,0.1917,0.1883,0.2027,0.2092,0.1979,0.2029,0.2146,0.2162,0.2044,0,0,0,0,0,0,0.0823,0.0868,0.0894,0.0948,0.0996,0.1095,0.1175,0.1286,0.1312,0.1488,0.1532,0.1662,0.1748,0.1838,0.1848,0.187,0.1867,0.2072,0.2068,0.2138,0.2152,0.2164,0.2048,0,0,0,0,0]},{"header":{"parameterUnit":"m.s-1","parameterCategory":2,"la1":30.2991,"la2":30.254,"lo1":-89.0895,"lo2":-89.0444,"dy":0.0017,"dx":0.0017,"nx":28,"ny":28,"refTime":"2025-04-16T21:00:00:Z","depth":"4","parameterNumber":3,"parameterNumberName":"V-component_of_CURRENTS"},"data":[0,0,0,0,0,0,0,0,0,0,0,0,0,0,0,0,0,0,0,0,0,0,0,0,0,0,0,0,0,0,0,0,0,0,0,0,0,0,0,0,0,0,0,0,0,0,0,0,0,0,0,0,0,0,0,0,0,0,-0.0066,-0.0066,0,-0.012,-0.012,-0.0121,-0.0158,-0.0158,-0.0158,-0.0158,-0.0237,-0.0239,-0.0241,0,0,0,0,0,0,0,0,0,0,0,0,0,-0.0036,-0.0036,-0.0065,-0.0066,-0.0067,-0.0119,-0.012,-0.0121,-0.0157,-0.0158,-0.0158,-0.0158,-0.0237,-0.0239,-0.0241,0,0,0,0,0,0,0,0,0,0,0,0,0,-0.0066,-0.0036,-0.0065,-0.0091,-0.0094,-0.0119,-0.012,-0.0121,-0.0157,-0.0158,-0.0158,-0.0158,-0.0236,-0.0239,-0.0241,-0.0253,0,0,-0.025,-0.0251,0,0,0,0,0,0,0,0,-0.0064,-0.0067,-0.0086,-0.0089,-0.0092,-0.0132,-0.0139,-0.0166,-0.0157,-0.0134,-0.0158,-0.0159,-0.0204,-0.0209,-0.0219,-0.0257,-0.026,-0.025,-0.0252,-0.0253,-0.0254,0,0,0,0,0,0,0,-0.0062,-0.0065,-0.0088,-0.0087,-0.0091,-0.0114,-0.0118,-0.0144,-0.0167,-0.0136,-0.0139,-0.0144,-0.0205,-0.0216,-0.0221,-0.0261,-0.025,-0.0253,-0.0255,-0.0256,-0.0313,-0.0313,0,0,0,0,0,0,-0.0051,-0.0063,-0.0086,-0.0089,-0.0078,-0.0114,-0.0119,-0.0119,-0.0166,-0.0174,-0.0143,-0.0145,-0.0211,-0.0218,-0.0224,-0.0234,-0.0253,-0.0256,-0.0258,-0.0313,-0.0313,-0.0313,0,0,0,0,0,0,-0.005,-0.0053,-0.0084,-0.0077,-0.0082,-0.0114,-0.0114,-0.012,-0.0134,-0.0172,-0.0179,-0.0151,-0.0212,-0.022,-0.0246,-0.0238,-0.0257,-0.026,-0.0313,-0.0313,-0.0313,-0.0259,0,0,0,0,0,0,-0.0049,-0.0052,-0.005,-0.0076,-0.0082,-0.0095,-0.0114,-0.0121,-0.0136,-0.0139,-0.0181,-0.0189,-0.0213,-0.0242,-0.0249,-0.0242,-0.0262,-0.0314,-0.0313,-0.0313,-0.0261,-0.0257,-0.0253,0,0,0,0,0,-0.0048,-0.0042,-0.0049,-0.0052,-0.0078,-0.0095,-0.01,-0.0125,-0.0136,-0.0139,-0.0167,-0.0187,-0.0244,-0.0244,-0.0252,-0.0246,-0.0314,-0.0313,-0.0313,-0.0263,-0.0258,-0.0253,0,0,0,0,0,0,-0.0031,-0.0046,-0.0054,-0.0054,-0.0071,-0.0101,-0.0106,-0.0123,-0.0148,-0.0151,-0.0188,-0.0197,-0.0217,-0.024,-0.0239,-0.0262,-0.0281,-0.0283,-0.024,-0.0236,-0.0232,-0.0211,-0.0265,0,0,0,0,0,-0.0025,-0.0024,-0.0044,-0.0045,-0.005,-0.0078,-0.0088,-0.0104,-0.0128,-0.014,-0.0167,-0.0197,-0.0221,-0.0235,-0.0261,-0.0275,-0.0299,-0.0276,-0.0272,-0.0269,-0.0258,-0.0288,-0.0286,-0.0311,-0.0311,-0.0311,0,0,-0.002,-0.0027,-0.0028,-0.0042,-0.0056,-0.0055,-0.0085,-0.0097,-0.0096,-0.0144,-0.0153,-0.0186,-0.0223,-0.0237,-0.0248,-0.0256,-0.0276,-0.0268,-0.0265,-0.0256,-0.0288,-0.0285,-0.0283,-0.0311,-0.0311,-0.0311,0,0,-0.0005,-0.0014,-0.0006,-0.0014,-0.0029,-0.0042,-0.0043,-0.0068,-0.0079,-0.0096,-0.0127,-0.0152,-0.0192,-0.0211,-0.0228,-0.0219,-0.0256,-0.0231,-0.0193,-0.0222,-0.022,-0.0219,-0.0249,-0.025,-0.0227,-0.0227,-0.0226,0,0.0001,0.0012,-0.0008,0.0,0.0002,-0.0031,-0.0018,-0.0034,-0.0065,-0.0067,-0.009,-0.0142,-0.0176,-0.0189,-0.0187,-0.0209,-0.0234,-0.0206,-0.0216,-0.0215,-0.0215,-0.0246,-0.0248,-0.0224,-0.0224,-0.0224,-0.0225,0,0.0023,0.0033,0.0038,0.0044,0.0041,0.0045,0.0029,0.0024,0.0004,-0.0014,-0.0035,-0.0085,-0.0111,-0.013,-0.0157,-0.0166,-0.0188,-0.0209,-0.0225,-0.0209,-0.0243,-0.0246,-0.022,-0.0221,-0.0222,-0.0223,0,0,0.0034,0.0052,0.0054,0.0075,0.0068,0.0073,0.0079,0.0079,0.0089,0.0047,0.0052,0.0,-0.0029,-0.005,-0.0091,-0.012,-0.0143,-0.0158,-0.016,-0.0181,-0.0211,-0.0223,-0.0229,-0.0168,-0.0169,-0.0169,-0.0238,0,0.0059,0.0096,0.0094,0.0132,0.0153,0.014,0.0152,0.0146,0.0129,0.0123,0.007,0.0053,0.0002,-0.0013,-0.0048,-0.0121,-0.0149,-0.0123,-0.0229,-0.0232,-0.024,-0.0232,-0.0169,-0.0241,-0.0241,-0.0242,-0.0243,0,0.0081,0.0109,0.0152,0.0194,0.0201,0.0217,0.0242,0.0249,0.0231,0.0214,0.0184,0.0139,0.0093,0.0045,-0.0061,-0.0044,-0.0116,-0.0176,-0.018,-0.0209,-0.025,-0.0261,-0.0249,-0.0249,-0.0248,-0.0248,-0.0247,0,0.0107,0.015,0.0193,0.0205,0.024,0.0262,0.0279,0.0277,0.0295,0.0273,0.0272,0.0206,0.017,0.0076,-0.0051,-0.0056,-0.0174,-0.0198,-0.0275,-0.0277,-0.027,-0.0271,-0.0264,-0.0263,-0.0263,-0.0263,-0.0263,0,0.0135,0.0169,0.0212,0.0237,0.0296,0.0303,0.0355,0.0356,0.0364,0.0386,0.0323,0.0309,0.0175,0.0089,-0.0026,-0.0162,-0.0157,-0.0262,-0.0293,-0.0247,-0.0244,-0.0273,-0.0273,-0.0266,-0.0265,-0.0265,-0.0264,0,0.0147,0.0175,0.023,0.0285,0.0309,0.0349,0.0412,0.0442,0.0441,0.0465,0.0461,0.0384,0.0261,0.0122,-0.0041,-0.0128,-0.0257,-0.0306,-0.0242,-0.0269,-0.0346,-0.0343,-0.0391,-0.0392,-0.0392,-0.0393,-0.0394,0,0.0157,0.0185,0.0265,0.0304,0.0332,0.0397,0.044,0.0473,0.0506,0.0505,0.0513,0.0414,0.0339,0.0112,-0.0047,-0.0259,-0.0292,-0.0346,-0.0346,-0.0333,-0.0358,-0.0353,-0.0349,-0.0395,-0.0395,-0.0395,-0.0396,0,0.017,0.0194,0.024,0.0324,0.0383,0.0455,0.0519,0.0553,0.0585,0.0593,0.0558,0.0443,0.03,0.0112,-0.0053,-0.0207,-0.0302,-0.0354,-0.0354,-0.0355,-0.0339,-0.0361,-0.0356,-0.0398,-0.0398,-0.0398,-0.0397,0,0.017,0.0196,0.0254,0.0325,0.0408,0.0477,0.0523,0.0565,0.0602,0.0611,0.0594,0.0446,0.0367,0.0137,-0.0018,-0.0169,-0.021,-0.0242,-0.0248,-0.0247,-0.0191,-0.0148,-0.0169,0,0,0,0,0,0.0159,0.0178,0.0249,0.0326,0.0414,0.0458,0.0554,0.0593,0.0638,0.0625,0.0617,0.0485,0.0259,0.0157,0.0003,-0.0059,-0.0254,-0.0245,-0.0298,-0.0414,-0.041,-0.0371,0,0,0,0,0,0,0.0145,0.0196,0.0231,0.0314,0.0363,0.0456,0.0517,0.0555,0.0558,0.0582,0.0463,0.0437,0.0208,0.0328,-0.0013,-0.0058,-0.011,-0.0345,-0.0348,-0.0415,-0.0412,-0.041,-0.0368,0,0,0,0,0]}]]